Russellville, AR

1:06 AM CDT on May 28, 2017 (GMT -0500)
Russellville Regional

Weather History for KRUE - July, 2013

Change the Weather History Date:

Friday, July 19, 2013

  Actual Average (KHOT) Record (KHOT)
Temperature  
Mean Temperature 84 °F -  
Max Temperature 97 °F 96 °F 108 °F (1980)
Min Temperature 73 °F 70 °F 58 °F (1984)
Cooling Degree Days 20    
Growing Degree Days 34 (Base 50)    
Moisture  
Dew Point 70 °F    
Average Humidity 73    
Maximum Humidity 94    
Minimum Humidity 37    
Precipitation  
Precipitation 0.05 in - - ()
Sea Level Pressure  
Sea Level Pressure 29.98 in    
Wind  
Wind Speed 2 mph (WNW)    
Max Wind Speed 17 mph    
Max Gust Speed 25 mph    
Visibility 9 miles    
Events Rain , Thunderstorm    
Averages and records for this station are not official NWS values.
T = Trace of Precipitation, MM = Missing Value Source: NWS Daily Summary

Daily Weather History Graph

Daily Weather History Graph

Search for Another Location

Airport or City:

Trip Planner

Search our weather history database for the weather conditions in past years. The results will help you decide how hot, cold, wet, or windy it might be!

Date:

Astronomy

Jul. 19, 2013 Rise Set
Actual Time 6:11 AM CDT 8:25 PM CDT
Civil Twilight 5:43 AM CDT 8:53 PM CDT
Nautical Twilight 5:07 AM CDT 9:29 PM CDT
Astronomical Twilight 4:29 AM CDT 10:07 PM CDT
Moon 5:28 PM CDT (7/19) 2:52 AM CDT (7/19)
Length of Visible Light 15h 10m
Length of Day
14h 13m
Waxing Gibbous, 87% of the Moon is Illuminated
Jul 19
Waxing Gibbous
Jul 22
Full
Jul 29
Last Quarter
Aug 6
New
Aug 14
First Quarter

Hourly Weather History & Observations

Time (CDT) Temp. Heat Index Dew Point Humidity Pressure Visibility Wind Dir Wind Speed Gust Speed Precip Events Conditions
12:53 AM 75.0 °F - 68.0 °F 79% 30.04 in - Calm Calm - N/A   Clear
1:53 AM 73.9 °F - 68.0 °F 82% 30.02 in - Calm Calm - N/A   Mostly Cloudy
2:53 AM 73.9 °F - 68.0 °F 82% 30.02 in - Calm Calm - N/A   Partly Cloudy
3:53 AM 73.0 °F - 69.1 °F 87% 30.01 in - Calm Calm - N/A   Mostly Cloudy
4:53 AM 73.0 °F - 69.1 °F 87% 30.01 in - Calm Calm - N/A   Partly Cloudy
5:53 AM 73.0 °F - 69.1 °F 87% 30.02 in - Calm Calm - N/A   Partly Cloudy
6:53 AM 73.0 °F - 69.1 °F 87% 30.02 in - Calm Calm - N/A   Clear
7:53 AM 75.0 °F - 70.0 °F 84% 30.03 in - Calm Calm - N/A   Clear
8:53 AM 79.0 °F - 69.1 °F 72% 30.03 in - Calm Calm - N/A   Clear
9:53 AM 82.9 °F 86.5 °F 69.1 °F 63% 30.03 in - Calm Calm - N/A   Clear
10:53 AM 88.0 °F 92.1 °F 69.1 °F 53% 30.02 in - Variable 3.5 mph - N/A   Clear
11:53 AM 90.0 °F 93.6 °F 68.0 °F 48% 30.00 in - Calm Calm - N/A   Clear
12:53 PM 91.9 °F 95.9 °F 68.0 °F 45% 29.97 in 10.0 mi Calm Calm - N/A   Clear
1:53 PM 93.9 °F 98.6 °F 68.0 °F 43% 29.94 in 10.0 mi SE 8.1 mph - N/A   Partly Cloudy
2:53 PM 95.0 °F 99.5 °F 68.0 °F 41% 29.91 in 10.0 mi SSW 5.8 mph - N/A   Clear
3:01 PM 96.8 °F 100.7 °F 66.2 °F 37% 29.93 in 10.0 mi Variable 6.9 mph - N/A Thunderstorm Partly Cloudy
3:16 PM 93.2 °F 96.2 °F 66.2 °F 41% 29.93 in 10.0 mi Variable 4.6 mph - N/A   Mostly Cloudy
3:27 PM 89.6 °F 93.4 °F 68.0 °F 49% 29.95 in 10.0 mi NNW 15.0 mph 18.4 mph N/A Thunderstorm Mostly Cloudy
3:42 PM 82.4 °F 86.3 °F 69.8 °F 66% 29.97 in 10.0 mi NNW 15.0 mph 24.2 mph N/A Thunderstorm Mostly Cloudy
3:53 PM 81.0 °F 84.1 °F 69.1 °F 67% 29.96 in 10.0 mi NNW 17.3 mph 25.3 mph N/A   Mostly Cloudy
4:06 PM 80.6 °F 83.9 °F 69.8 °F 70% 29.98 in 10.0 mi NNW 11.5 mph 20.7 mph N/A Thunderstorm Overcast
4:53 PM 75.9 °F - 72.0 °F 87% 29.93 in 4.0 mi Variable 4.6 mph - 0.03 in Rain , Thunderstorm Rain
5:25 PM 75.2 °F - 73.4 °F 94% 29.96 in 7.0 mi Calm Calm - 0.01 in Rain Light Rain
5:53 PM 75.9 °F - 73.0 °F 91% 29.94 in 9.0 mi Calm Calm - 0.02 in Rain , Thunderstorm Light Rain
6:08 PM 75.2 °F - 71.6 °F 89% 29.97 in 10.0 mi Calm Calm - 0.00 in   Partly Cloudy
6:53 PM 75.9 °F - 73.0 °F 91% 29.96 in 10.0 mi SW 3.5 mph - 0.00 in   Clear
7:53 PM 77.0 °F - 72.0 °F 84% 29.95 in 10.0 mi Calm Calm - N/A   Clear
8:53 PM 75.0 °F - 73.0 °F 94% 29.94 in 10.0 mi Calm Calm - N/A   Clear
9:53 PM 75.0 °F - 72.0 °F 90% 29.95 in 10.0 mi Calm Calm - N/A   Clear
10:53 PM 73.9 °F - 72.0 °F 93% 29.93 in 8.0 mi Calm Calm - N/A   Clear
11:53 PM 73.0 °F - 71.1 °F 93% 29.94 in 5.0 mi Calm Calm - N/A   Clear